Satellite-Ground Cal/Val Site Overpasses Predictions

Prediction of Satellite NPP Overpassing Cal/Val Site: Antarctic Dome C

Ground Cal/Val Site Location: Latitude: -75.10, Longitude: 123.35; Satellite-Ground Site NADIR distance within 100 km.

Table of predicted overpasses for the next 14.0 days since TLE Epoch: 9/23/2016
Interval Starting Time Ending Time Minimum Distance Time Minimum Distance (km)
1 09/24/2016 14:36:39 09/24/2016 14:36:53 09/24/2016 14:36:46 87.51
2 09/25/2016 07:38:12 09/25/2016 07:38:40 09/25/2016 07:38:26 34.43
3 09/26/2016 07:19:27 09/26/2016 07:19:46 09/26/2016 07:19:37 75.58
4 09/28/2016 15:01:44 09/28/2016 15:02:08 09/28/2016 15:01:56 56.83
5 09/29/2016 14:42:55 09/29/2016 14:43:20 09/29/2016 14:43:08 52.13
6 09/30/2016 07:44:36 09/30/2016 07:44:57 09/30/2016 07:44:47 70.24
7 10/01/2016 07:25:45 10/01/2016 07:26:12 10/01/2016 07:25:59 37.71
8 10/03/2016 15:08:14 10/03/2016 15:08:22 10/03/2016 15:08:18 95.08
9 10/04/2016 14:49:14 10/04/2016 14:49:43 10/04/2016 14:49:28 16.07
